Regional Weather Roundup
Issued by NWS

Home | Current Version | Previous Version | Text Only | Print | Product List | Glossary Off
Versions: 1 2 3 4 5 6 7 8 9 10 11 12 13 14 15 16 17 18 19 20 21 22 23 24 25 26 27 28 29 30 31 32 33 34 35 36 37 38 39 40 41 42 43 44 45 46 47 48 49 50

000
ASUS45 KBOU 301807
RWRCO

WEATHER ROUNDUP FOR COLORADO
NATIONAL WEATHER SERVICE DENVER/BOULDER CO
1200 PM MDT SUN AUG 30 2015

NOTE: "FAIR" INDICATES FEW OR NO CLOUDS BELOW 12000 FEET WITH NO
SIGNIFICANT WEATHER AND/OR OBSTRUCTIONS TO VISIBILITY.

COZ001>005-013-030-031-301900-
...NORTHWEST COLORADO...

CITY           SKY/WX    TMP DP  RH WIND       PRES   REMARKS
CRAIG          MOSUNNY   87  40  19 W17G23    30.16F
HAYDEN         NOT AVBL
MEEKER         MOSUNNY   82  42  24 SW16      30.19F
MOUNT WERNER   NOT AVBL
STEAMBOAT SPGS MOSUNNY   80  39  23 SW7       30.23F
WALDEN         PTSUNNY   73  36  25 SW9       30.32F
$$

COZ006>008-011-301900-
...WEST CENTRAL VALLEYS...

CITY           SKY/WX    TMP DP  RH WIND       PRES   REMARKS
GRAND JUNCTION SUNNY     84  44  24 S7        30.10F
MONTROSE       SUNNY     83  46  27 N7        30.20F
EAGLE          MOSUNNY   75  37  25 CALM      30.26F
RIFLE          MOSUNNY   82  43  25 VRB3      30.16F
DELTA          SUNNY     85  46  24 CALM      30.15F HAZE
NUCLA          SUNNY     84  41  21 S7        30.25F
$$

COZ017>023-064>068-301900-
...SOUTHWEST COLORADO...

CITY           SKY/WX    TMP DP  RH WIND       PRES   REMARKS
DURANGO        MOSUNNY   78  45  30 VRB7      30.31F
CORTEZ         PTSUNNY   83  47  28 SW10      30.24F
PAGOSA SPRINGS MOSUNNY   74  39  28 SW5       30.38F
TELLURIDE      PTSUNNY   70  42  35 W8        30.48S
WOLF CREEK PAS MOSUNNY   52  41  66 SW10G17   30.71S
$$

COZ009-010-012-014-032>034-037-058>063-301900-
...CENTRAL COLORADO...

CITY           SKY/WX    TMP DP  RH WIND       PRES   REMARKS
ASPEN          MOSUNNY   79  38  22 NW5       30.32F
BUENA VISTA    SUNNY     75  36  24 E6        30.35F
COPPER MTN     MOSUNNY   63  30  29 W17G24    30.67S
BERTHOUD PASS  PTSUNNY   54  41  62 NW21G29   30.71S
COTTONWOOD PAS SUNNY     72  34  25 CALM      30.50F
GUNNISON       SUNNY     73  39  29 CALM      30.38F
KREMMLING      SUNNY     79  32  18 CALM      30.31F
LEADVILLE      MOSUNNY   70  31  23 VRB6      30.49F
MONARCH PASS   SUNNY     55  36  47 W22G29    30.78S
SALIDA         MOSUNNY   82  38  20 S3        30.38F
SUNLIGHT       PTSUNNY   61  43  51 SW5       30.59S
WILKERSON PASS SUNNY     61  30  31 W5        30.64S
$$

COZ069>075-301900-
...SAN LUIS VALLEY/SANGRE DE CRISTO MOUNTAINS...

CITY           SKY/WX    TMP DP  RH WIND       PRES   REMARKS
ALAMOSA        SUNNY     75  44  33 CALM      30.36F
LA VETA PASS   MOSUNNY   68  37  32 SW6       30.54F
SAGUACHE       NOT AVBL
$$

COZ035-036-038>040-301900-
...NORTHERN COLORADO FRONT RANGE...

CITY           SKY/WX    TMP DP  RH WIND       PRES   REMARKS
DENVER INTL AP MOSUNNY   92  32  12 CALM      30.11F
DMNS CITY PARK   N/A     90  35  14 E7G15     30.08F
AURORA         NOT AVBL
FRONT RANGE AP MOSUNNY   90  30  12 W3        30.12F
ERIE MUNI ARPT SUNNY     91  32  12 E7        30.07F
BOULDER MUN AP SUNNY     90  37  15 E3        30.07F
CENTENNIAL     PTSUNNY   87  34  15 NE5       30.14F
BROOMFIELD     MOSUNNY   90  36  14 E10       30.12F
FORT COLLINS   SUNNY     88  52  29 SE12      30.06F
LONGMONT       SUNNY     92  43  18 E3        30.08F
$$

COZ041-046-047-076>085-087-088-301900-
...PIKES PEAK/PALMER DIVIDE AND SOUTHERN FOOTHILLS...

CITY           SKY/WX    TMP DP  RH WIND       PRES   REMARKS
COLO. SPRINGS  MOSUNNY   85  41  21 S9        30.20F
A. F. ACADEMY  SUNNY     86  37  17 S8        30.20F
ELLICOTT       NOT AVBL
FALCON         SUNNY     83  33  16 MISG      30.25F
FORT CARSON    NOT AVBL
LIMON          SUNNY     83  50  31 S14       30.14F
MONUMENT HILL  SUNNY     81  30  16 CALM      30.25F
TRINIDAD       SUNNY     88  42  20 CALM      30.18F
$$

COZ042>045-048>051-090-091-301900-
...NORTHEAST COLORADO...

CITY           SKY/WX    TMP DP  RH WIND       PRES   REMARKS
GREELEY ARPT   SUNNY     90  48  24 S6        30.06F
AKRON          SUNNY     91  46  21 S17       30.06F
BURLINGTON     SUNNY     85  47  26 S21G26    30.09F
WRAY           MOSUNNY   94  41  16 S21       30.02F
STERLING       SUNNY     90  52  27 SW14      29.99F
HOLYOKE        SUNNY     91  52  25 S14G23    30.01F
FORT MORGAN    SUNNY     86  48  26 S6        30.06F
$$

COZ086-089-092>099-301900-
...SOUTHEAST COLORADO...

CITY           SKY/WX    TMP DP  RH WIND       PRES   REMARKS
PUEBLO         SUNNY     86  48  26 SE6       30.08F
LA JUNTA       SUNNY     89  51  27 SE6       30.07F
LAMAR          NOT AVBL
SPRINGFIELD    NOT AVBL
$$




USA.gov is the U.S. government's official web portal to all federal, state and local government web resources and services.